STARLINK-1933 (46791 NORAD) Tracking and Keplerian Element Data

This shows tracking and keplerian element data for the satellite.

Feedback or suggestion? Click here.




ElementValue
Catalog46791
NameSTARLINK-1933
Epoch Orbit528
Epoch Day331.16668981
Epoch Year2020
RAAN0.7836
Inclination53.055
Eccentricity0.0001227
Argument of Perigee70.9496
Mean Anonmoly136.4795
Mean Motion15.62768787
Decay Rate9.062E-05
L11 46791U 20074BE 20331.16668981 .00009062 00000-0 10463-3 0 9998
L22 46791 53.0550 0.7836 0001227 70.9496 136.4795 15.62768787 5285

Live tracking and technical data element details for STARLINK-1933 (NORAD 46791). STARLINK-1933 can be tracked NOW for your location showing map with azimuth and elevation plus other details from your city location.

Track the satellite on the map from your city or location and see movement details for azimuth, elevation, latitude, longitude, range, height, and movement on the map or in text.







IsCatalogInMostPopularTable: catalog: 46791, numindb: 6
Update: records affected: 1



GetName: 46791 STARLINK-1933

Hit Count: updated at: Thu, 26 Nov 2020 18:05:59 GMT